, AK

(GMT )
Point Hope

Weather History for PAPO - June, 2013

Change the Weather History Date:

Tuesday, June 4, 2013

  Actual Average Record
Temperature  
Mean Temperature 30 °F -  
Max Temperature 33 °F 36 °F 48 °F (2004)
Min Temperature 26 °F 29 °F 24 °F (1999)
Degree Days  
Heating Degree Days 36    
Moisture  
Dew Point 24 °F    
Average Humidity 79    
Maximum Humidity 86    
Minimum Humidity 70    
Precipitation  
Precipitation 0.00 in - - ()
Sea Level Pressure  
Sea Level Pressure 29.79 in    
Wind  
Wind Speed 23 mph (North)    
Max Wind Speed 28 mph    
Max Gust Speed 32 mph    
Visibility 10 miles    
Events      
Averages and records for this station are not official NWS values.
T = Trace of Precipitation, MM = Missing Value Source: NWS Daily Summary

Daily Weather History Graph

Daily Weather History Graph

Search for Another Location

Airport or City:

Trip Planner

Search our weather history database for the weather conditions in past years. The results will help you decide how hot, cold, wet, or windy it might be!

Date:

Astronomy

Jun. 04, 2013 Rise Set
Actual Time 3:37 AM AKDT 2:33 AM AKDT
Civil Twilight Sun does not set Sun does not set
Nautical Twilight Sun does not set Sun does not set
Astronomical Twilight Sun does not set Sun does not set
Moon 3:43 AM AKDT (6/4) 9:11 PM AKDT (6/4)
Length of Visible Light 24h 00m
Length of Day
22h 55m
Waning Crescent, 13% of the Moon is Illuminated
Jun 4
Waning Crescent
Jun 8
New
Jun 16
First Quarter
Jun 23
Full
Jun 29
Last Quarter

Hourly Weather History & Observations

Time (AKDT) Temp. Windchill Dew Point Humidity Pressure Visibility Wind Dir Wind Speed Gust Speed Precip Events Conditions
12:16 AM 30.2 °F 17.1 °F 26.6 °F 86% 29.89 in 10.0 mi North 21.9 mph 28.8 mph N/A   Overcast
12:36 AM 30.2 °F 15.9 °F 24.8 °F 80% 29.88 in 10.0 mi North 26.5 mph - N/A   Overcast
12:56 AM 30.2 °F 16.8 °F 24.8 °F 80% 29.88 in 10.0 mi North 23.0 mph 28.8 mph N/A   Overcast
1:16 AM 28.4 °F 14.1 °F 24.8 °F 86% 29.88 in 10.0 mi North 24.2 mph 28.8 mph N/A   Overcast
1:36 AM 28.4 °F 14.4 °F 24.8 °F 86% 29.88 in 10.0 mi North 23.0 mph - N/A   Overcast
1:56 AM 28.4 °F 14.7 °F 24.8 °F 86% 29.88 in 10.0 mi North 21.9 mph 27.6 mph N/A   Overcast
2:16 AM 28.4 °F 15.1 °F 24.8 °F 86% 29.88 in 10.0 mi North 20.7 mph 26.5 mph N/A   Overcast
2:36 AM 28.4 °F 14.7 °F 24.8 °F 86% 29.88 in 10.0 mi North 21.9 mph 29.9 mph N/A   Overcast
2:56 AM 28.4 °F 14.4 °F 24.8 °F 86% 29.87 in 10.0 mi North 23.0 mph - N/A   Overcast
3:16 AM 28.4 °F 14.4 °F 24.8 °F 86% 29.87 in 10.0 mi North 23.0 mph 29.9 mph N/A   Overcast
3:36 AM 28.4 °F 14.4 °F 24.8 °F 86% 29.86 in 10.0 mi North 23.0 mph 31.1 mph N/A   Overcast
3:56 AM 28.4 °F 14.4 °F 24.8 °F 86% 29.86 in 10.0 mi North 23.0 mph 28.8 mph N/A   Overcast
4:16 AM 28.4 °F 14.1 °F 24.8 °F 86% 29.86 in 10.0 mi North 24.2 mph - N/A   Overcast
4:36 AM 28.4 °F 14.1 °F 24.8 °F 86% 29.86 in 10.0 mi North 24.2 mph 27.6 mph N/A   Overcast
4:56 AM 28.4 °F 13.5 °F 24.8 °F 86% 29.86 in 10.0 mi North 26.5 mph 31.1 mph N/A   Overcast
5:16 AM 28.4 °F 14.4 °F 24.8 °F 86% 29.85 in 10.0 mi North 23.0 mph 28.8 mph N/A   Overcast
5:36 AM 28.4 °F 14.1 °F 23.0 °F 80% 29.84 in 10.0 mi North 24.2 mph 27.6 mph N/A   Overcast
5:56 AM 28.4 °F 14.1 °F 23.0 °F 80% 29.84 in 10.0 mi North 24.2 mph 27.6 mph N/A   Overcast
6:16 AM 28.4 °F 13.5 °F 23.0 °F 80% 29.84 in 10.0 mi North 26.5 mph - N/A   Overcast
6:36 AM 28.4 °F 13.8 °F 23.0 °F 80% 29.84 in 10.0 mi North 25.3 mph - N/A   Overcast
6:56 AM 28.4 °F 14.1 °F 23.0 °F 80% 29.83 in 10.0 mi North 24.2 mph 28.8 mph N/A   Overcast
7:16 AM 26.6 °F 11.7 °F 23.0 °F 86% 29.83 in 10.0 mi North 24.2 mph 28.8 mph N/A   Overcast
7:36 AM 26.6 °F 12.0 °F 23.0 °F 86% 29.83 in 10.0 mi North 23.0 mph 31.1 mph N/A   Overcast
7:56 AM 28.4 °F 14.1 °F 23.0 °F 80% 29.83 in 10.0 mi North 24.2 mph - N/A   Overcast
8:16 AM 28.4 °F 13.5 °F 21.2 °F 74% 29.82 in 10.0 mi North 26.5 mph - N/A   Overcast
8:36 AM 28.4 °F 14.1 °F 21.2 °F 74% 29.82 in 10.0 mi North 24.2 mph - N/A   Overcast
9:16 AM 28.4 °F 14.4 °F 23.0 °F 80% 29.81 in 10.0 mi North 23.0 mph 27.6 mph N/A   Overcast
9:36 AM 28.4 °F 14.1 °F 23.0 °F 80% 29.80 in 10.0 mi North 24.2 mph - N/A   Overcast
9:56 AM 28.4 °F 13.5 °F 23.0 °F 80% 29.80 in 10.0 mi North 26.5 mph - N/A   Overcast
10:16 AM 28.4 °F 13.3 °F 24.8 °F 86% 29.80 in 10.0 mi North 27.6 mph - N/A   Overcast
10:36 AM 28.4 °F 13.8 °F 23.0 °F 80% 29.80 in 10.0 mi North 25.3 mph - N/A   Overcast
10:56 AM 28.4 °F 14.1 °F 23.0 °F 80% 29.80 in 10.0 mi North 24.2 mph 29.9 mph N/A   Overcast
11:16 AM 28.4 °F 13.5 °F 23.0 °F 80% 29.80 in 10.0 mi North 26.5 mph 31.1 mph N/A   Overcast
11:36 AM 28.4 °F 13.5 °F 23.0 °F 80% 29.79 in 10.0 mi North 26.5 mph 32.2 mph N/A   Overcast
11:56 AM 30.2 °F 15.9 °F 24.8 °F 80% 29.79 in 10.0 mi North 26.5 mph 31.1 mph N/A   Overcast
12:16 PM 30.2 °F 15.7 °F 23.0 °F 75% 29.79 in 10.0 mi North 27.6 mph - N/A   Overcast
12:36 PM 30.2 °F 16.2 °F 24.8 °F 80% 29.79 in 10.0 mi North 25.3 mph 31.1 mph N/A   Overcast
12:56 PM 30.2 °F 15.9 °F 24.8 °F 80% 29.78 in 10.0 mi North 26.5 mph 29.9 mph N/A   Overcast
1:16 PM 30.2 °F 16.5 °F 24.8 °F 80% 29.78 in 10.0 mi North 24.2 mph - N/A   Overcast
1:36 PM 30.2 °F 16.5 °F 23.0 °F 75% 29.78 in 10.0 mi North 24.2 mph 29.9 mph N/A   Overcast
1:56 PM 30.2 °F 16.5 °F 24.8 °F 80% 29.77 in 10.0 mi North 24.2 mph - N/A   Overcast
2:16 PM 32.0 °F 19.5 °F 24.8 °F 75% 29.77 in 10.0 mi NNE 21.9 mph - N/A   Overcast
2:36 PM 30.2 °F 16.5 °F 24.8 °F 80% 29.77 in 10.0 mi North 24.2 mph - N/A   Overcast
2:56 PM 32.0 °F 18.6 °F 24.8 °F 75% 29.76 in 10.0 mi North 25.3 mph 28.8 mph N/A   Scattered Clouds
3:36 PM 32.0 °F 18.9 °F 24.8 °F 75% 29.76 in 10.0 mi North 24.2 mph - N/A   Clear
3:56 PM 32.0 °F 19.2 °F 24.8 °F 75% 29.76 in 10.0 mi North 23.0 mph - N/A   Clear
4:16 PM 33.8 °F 21.3 °F 24.8 °F 70% 29.75 in 10.0 mi North 24.2 mph - N/A   Partly Cloudy
4:36 PM 32.0 °F 18.9 °F 24.8 °F 75% 29.75 in 10.0 mi North 24.2 mph 27.6 mph N/A   Mostly Cloudy
4:56 PM 33.8 °F 21.3 °F 24.8 °F 70% 29.75 in 10.0 mi North 24.2 mph - N/A   Mostly Cloudy
5:16 PM 33.8 °F 21.3 °F 24.8 °F 70% 29.75 in 10.0 mi North 24.2 mph - N/A   Overcast
5:36 PM 33.8 °F 22.2 °F 24.8 °F 70% 29.75 in 10.0 mi North 20.7 mph - N/A   Overcast
5:56 PM 33.8 °F 21.6 °F 24.8 °F 70% 29.74 in 10.0 mi North 23.0 mph - N/A   Scattered Clouds
6:16 PM 33.8 °F 21.6 °F 24.8 °F 70% 29.74 in 10.0 mi North 23.0 mph - N/A   Clear
6:36 PM 33.8 °F 21.3 °F 24.8 °F 70% 29.74 in 10.0 mi North 24.2 mph - N/A   Clear
6:56 PM 33.8 °F 21.6 °F 24.8 °F 70% 29.74 in 10.0 mi North 23.0 mph - N/A   Clear
7:16 PM 33.8 °F 22.5 °F 24.8 °F 70% 29.73 in 10.0 mi North 19.6 mph - N/A   Clear
7:36 PM 33.8 °F 22.2 °F 24.8 °F 70% 29.73 in 10.0 mi North 20.7 mph - N/A   Clear
7:56 PM 33.8 °F 21.6 °F 24.8 °F 70% 29.73 in 10.0 mi North 23.0 mph - N/A   Clear
8:16 PM 32.0 °F 19.2 °F 24.8 °F 75% 29.73 in 10.0 mi North 23.0 mph - N/A   Clear
8:36 PM 32.0 °F 19.5 °F 24.8 °F 75% 29.72 in 10.0 mi North 21.9 mph - N/A   Clear
8:56 PM 32.0 °F 18.9 °F 24.8 °F 75% 29.72 in 10.0 mi North 24.2 mph - N/A   Clear
9:16 PM 32.0 °F 19.8 °F 24.8 °F 75% 29.72 in 10.0 mi North 20.7 mph - N/A   Clear
9:36 PM 32.0 °F 19.8 °F 24.8 °F 75% 29.72 in 10.0 mi North 20.7 mph - N/A   Clear
9:56 PM 30.2 °F 17.4 °F 24.8 °F 80% 29.72 in 10.0 mi North 20.7 mph - N/A   Clear
10:16 PM 30.2 °F 17.8 °F 24.8 °F 80% 29.72 in 10.0 mi North 19.6 mph - N/A   Clear
10:36 PM 30.2 °F 18.1 °F 24.8 °F 80% 29.72 in 10.0 mi North 18.4 mph - N/A   Clear
10:56 PM 30.2 °F 18.1 °F 24.8 °F 80% 29.71 in 10.0 mi North 18.4 mph - N/A   Clear
11:16 PM 30.2 °F 17.8 °F 24.8 °F 80% 29.70 in 10.0 mi North 19.6 mph - N/A   Clear
11:36 PM 30.2 °F 17.8 °F 24.8 °F 80% 29.71 in 10.0 mi North 19.6 mph - N/A   Clear
11:56 PM 30.2 °F 18.5 °F 24.8 °F 80% 29.71 in 10.0 mi North 17.3 mph - N/A   Clear